Tevel-2
1 51069U 22002CP 23201.75991287 .00020305 00000-0 78076-3 0 9994
2 51069 97.4310 268.4926 0008940 116.7798 243.4356 15.26404325 83880
DELFI-PQ
1 51074U 22002CU 23200.73973490 .00045065 00000-0 11695-2 0 9996
2 51074 97.4571 273.5293 0010165 139.0337 221.1673 15.38799859 84000
SO-115
1 51080U 22002DA 23200.44044173 .00025324 00000-0 86459-3 0 9995
2 51080 97.4593 271.2810 0011593 143.2946 216.9091 15.30240029 83827
SO-114
1 51081U 22002DB 23201.66676847 .00024775 00000-0 83933-3 0 9993
2 51081 97.4588 272.4908 0011753 138.9525 221.2602 15.30494130 84018
OreSat0
1 52017U 22026K 23201.56199936 .00017418 00000-0 67437-3 0 9994
2 52017 97.5079 204.0776 0019888 331.6146 28.4007 15.26060469 74638
Planetum 1
1 52738U 22057G 23199.79912130 .00016199 00000-0 72962-3 0 9992
2 52738 97.5417 315.7694 0006239 229.8520 130.2169 15.21127671 63467
Foresail-1
1 52766U 22057AL 23201.77272469 .00009558 00000-0 44539-3 0 9999
2 52766 97.5540 318.6419 0011546 207.3191 152.7438 15.20050581 63781
SNUGLITE 2
1 52899U 22065F 23200.65012237 .00001353 00000-0 29514-3 0 9997
2 52899 98.0733 344.5971 0009229 112.7243 247.4933 14.59391270 55597
CTIM
1 52950U 22074G 23201.75405848 .00045177 00000-0 90154-3 0 9991
2 52950 44.9967 171.2138 0012863 80.5631 279.6713 15.46107303 58792
IO-117
1 53106U 22080B 23200.27024149 -.00000003 00000-0 00000+0 0 9996
2 53106 70.1621 308.5714 0008596 179.9245 180.1417 6.42556851 23815
AstroBioCubeSat
1 53107U 22080C 23025.30817895 -.00000003 00000-0 00000-0 0 9995
2 53107 70.1710 9.4734 0013545 210.3158 149.6718 6.42110537 12478
SelfieSat
1 53951U 22057BC 23200.32011919 .00019035 00000-0 80928-3 0 9990
2 53951 97.5466 317.0357 0008351 221.6231 138.4371 15.23048252 63572
FO-118
1 54684U 22167C 23201.77468297 .00012067 00000-0 65253-3 0 9993
2 54684 97.5672 339.1448 0012890 214.3154 145.7246 15.14753452 33762
SSS-2B
1 56184U 23054G 23201.74562354 .00007758 00000-0 32692-3 0 9994
2 56184 97.4065 96.2530 0008557 279.1842 80.8427 15.23576288 15282
CIRBE
1 56188U 23054L 23201.65326260 .00015070 00000-0 61947-3 0 9993
2 56188 97.4017 96.1606 0007258 272.4156 87.6250 15.24244495 15278
INSPIRE-Sat 7
1 56211U 23054AK 23200.70244515 .00015850 00000-0 61806-3 0 9997
2 56211 97.4047 95.4821 0011956 254.2499 105.7421 15.25960538 15149
RoseyCubesat 1
1 56212U 23054AL 23200.68964040 .00016443 00000-0 63509-3 0 9998
2 56212 97.4053 95.5066 0012236 253.6533 106.3361 15.26268298 15148
ARKSAT 1
1 56311U 98067VC 23200.48694466 .00067304 00000-0 77777-3 0 9998
2 56311 51.6361 164.7991 0002884 159.7209 200.3900 15.61248146 13402
AuroraSat
1 56312U 98067VD 23200.06805236 .00100014 00000-0 10720-2 0 9992
2 56312 51.6345 166.4966 0003088 137.9593 222.1638 15.63017070 13375
Ex-Alta 2
1 56313U 98067VE 23200.10249243 .00076533 00000-0 88300-3 0 9996
2 56313 51.6344 166.7256 0002792 155.2529 204.8599 15.61236478 13368
LightCube
1 56314U 98067VF 23201.74060240 .00093096 00000-0 10044-2 0 9998
2 56314 51.6349 158.1633 0005064 147.1167 213.0143 15.62873111 13652
NEUDOSE
1 56315U 98067VG 23200.11449043 .00052613 00000-0 68101-3 0 9999
2 56315 51.6356 167.5562 0004768 164.9639 195.1496 15.58363909 13337
YukonSat
1 56316U 98067VH 23200.07827063 .00066539 00000-0 81056-3 0 9993
2 56316 51.6346 167.3147 0004514 153.1872 206.9355 15.59869517 13356
URESAT-1
1 56992U 23084BU 23200.13360520 .00013739 00000-0 79238-3 0 9990
2 56992 97.5101 316.1299 0019344 108.9762 251.3567 15.12322586 5471
UmKA 1 (RS40S)
1 57172U 23091G 23201.77335500 .00004066 00000-0 30197-3 0 9994
2 57172 97.6604 252.2593 0018573 167.7381 192.4300 15.03454832 3480
CubeBel-2 (EU11S)
1 57175U 23091K 23201.78307968 .00004734 00000-0 35673-3 0 9991
2 57175 97.6610 252.2473 0017027 176.8243 183.3093 15.02847937 3487
/EX
1
0

21 Jul '23
The following satellites have been added to this week's AMSAT-NA TLE distribution:
CUbeBel 2 (EU11S) NORAD Cat ID 57175 IARU Coordinated Frequency: 436.99 MHz.
(Thanks to Nico Janssen, PA0DLO for identification)
URESAT-1 NORAD Cat ID 56992 IARU Coodinated Frequency: 436.888 MHz
(Thanks to Felix Paez, EA4GQS AMSAT EA President for identification)
The follwing satellite has decayed from orbit and has been removed from this week's AMSAT-NA TLE distribution:
EO-88 (Nayif 1) NORAD Cat ID 42017 "[R]e entered over North America. The last frame of data was provided by WB0IZO in NM" according to David Bowman G0MRF AMSAT-UK
Joe Fitzgerald KM1P
AMSAT Orbital Elements Manager
1
0
The following satellite has been added to this week's AMSAT-NA TLE distribution:
UmKA 1 (RS40S) NORAD Cat ID 57172 IARU coordinated frequencies 437.625 MHz, 435.825 MHz and 2402.400 MHz (Thanks to Nico Janssen, PA0DLO for identification).
Joe Fitzgerald KM1P
AMSAT Orbital Elements Manager
1
0
SB KEPS @ AMSAT $ORB23195.1
2Line Orbital Elements 23195.AMSAT
QST de W1STR
AMSAT Orbital Elements for Amateur Satellites in TLE Format
From Orbital Analysis Office
New England Sci-Tech STEM Education Center
Natick, MA July 14, 2023
To all radio amateurs
Decode two line element sets with the following key:
1 AAAAAU 00 0 0 BBBBB.BBBBBBBB .CCCCCCCC 00000-0 ******** 0 DDDDZ
2 AAAAA EEE.EEEE FFF.FFFF GGGGGGG HHH.HHHH III.IIII JJ.JJJJJJJJKKKKKZ
KEY: A-CATALOGNUM B-EPOCHTIME C-DECAY *-BSTAR D-ELSETNUM E-INCLINATION
F-RAAN G-ECCENTRICITY H-ARGPERIGEE I-MNANOM J-MNMOTION K-ORBITNUM
Z-CHECKSUM
For more detail see www.amsat.org/keplerian-elements-formats/
AO-07
1 07530U 74089B 23193.80466108 -.00000028 00000-0 11358-3 0 9996
2 07530 101.9476 180.6552 0012423 16.5699 54.3468 12.53665280226626
UO-11
1 14781U 84021B 23193.73094930 .00001656 00000-0 20014-3 0 9997
2 14781 97.6584 169.6745 0009662 113.5261 246.6971 14.84988793118930
AO-16
1 20439U 90005D 23194.72390941 .00000208 00000-0 92766-4 0 9990
2 20439 98.8837 185.6357 0011711 122.6712 51.2425 14.33123719748956
LO-19
1 20442U 90005G 23194.69879419 .00000202 00000-0 90278-4 0 9992
2 20442 98.8449 171.7825 0012873 99.9380 260.3257 14.33277567749208
HUBBLE
1 20580U 90037B 23194.19092035 .00004258 00000-0 22176-3 0 9992
2 20580 28.4697 94.9516 0002381 303.5588 189.5250 15.13455405625672
MET-2/21
1 22782U 93055A 23194.72471765 .00000085 00000-0 63632-4 0 9998
2 22782 82.5482 63.7016 0021757 332.8081 89.2255 13.83890637508396
AO-27
1 22825U 93061C 23194.65073999 .00000131 00000-0 68184-4 0 9991
2 22825 98.8392 237.9654 0008300 358.8072 1.3089 14.30319882554341
IO-26
1 22826U 93061D 23194.64747800 .00000152 00000-0 75615-4 0 9990
2 22826 98.8338 237.8248 0008541 343.7632 16.3275 14.30682355554590
FO-29
1 24278U 96046B 23192.73838520 .00000033 00000-0 70500-4 0 9993
2 24278 98.5294 167.9478 0350139 353.4098 6.2500 13.53149042328500
NOAA-15
1 25338U 98030A 23194.74339325 .00000249 00000-0 12154-3 0 9997
2 25338 98.6043 223.3444 0009392 232.0569 127.9763 14.26351072309047
GO-32
1 25397U 98043D 23193.79868056 .00000097 00000-0 62274-4 0 9998
2 25397 98.8699 151.4776 0002361 73.7223 286.4215 14.23886817299190
ISS
1 25544U 98067A 23194.81749766 .00010770 00000-0 19835-3 0 9991
2 25544 51.6416 196.5612 0000363 52.4414 2.7291 15.49719067405927
NO-44
1 26931U 01043C 23194.20170668 .00000212 00000-0 11192-3 0 9990
2 26931 67.0511 129.6537 0008047 268.3789 91.6391 14.30941547137466
SO-50
1 27607U 02058C 23194.70062979 .00001064 00000-0 16386-3 0 9994
2 27607 64.5530 183.6393 0066483 219.3302 140.2963 14.77390603106357
